FLOCK 3P-32 (42023 NORAD) Tracking and Keplerian Element Data

This shows tracking and keplerian element data for the satellite.

Feedback or suggestion? Click here.




ElementValue
Catalog42023
NameFLOCK 3P-32
Epoch Orbit17373
Epoch Day91.74545744
Epoch Year2020
RAAN160.4742
Inclination97.3715
Eccentricity0.000719
Argument of Perigee196.1069
Mean Anonmoly163.9942
Mean Motion15.26191546
Decay Rate1.535E-05
L11 42023U 17008CD 20091.74545744 .00001535 00000-0 62136-4 0 9995
L22 42023 97.3715 160.4742 0007190 196.1069 163.9942 15.26191546173733

Live tracking and technical data element details for FLOCK 3P-32 (NORAD 42023). FLOCK 3P-32 can be tracked NOW for your location showing map with azimuth and elevation plus other details from your city location.

Track the satellite on the map from your city or location and see movement details for azimuth, elevation, latitude, longitude, range, height, and movement on the map or in text.







IsCatalogInMostPopularTable: catalog: 42023, numindb: 321
Update: records affected: 1



GetName: 42023 FLOCK 3P-32

Hit Count: updated at: Fri, 03 Apr 2020 08:33:08 GMT